SCP
1 1 1 1 1 1 1 1 1 1 1 1 0 0 0 0 1 1 1 1 1 1 1 1 1 0 0 0 0 0 1 1 1 0 0 0 0 0 0 0 0 0 0
1 1 1 1 1 1 1 1 1 1 1 1 1 0 0 0 1 1 1 1 1 1 1 1 1 1 0 0 0 0 1 1 1 0 0 0 0 0 0 0 0 0 0
1 1 1 1 1 1 1 1 1 1 1 1 1 1 1 0 0 1 1 1 1 1 1 1 1 1 1 0 0 0 1 1 1 0 0 0 0 0 0 0 0 0 0
1 1 1 1 1 1 1 1 1 1 1 1 1 1 1 1 0 1 1 1 1 1 1 1 1 1 1 1 0 0 1 1 1 1 1 1 1 1 1 0 0 0 0
1 1 1 1 1 1 1 1 1 1 1 1 1 1 1 1 1 1 1 1 1 1 1 1 1 1 1 1 1 1 1 1 1 1 1 1 1 1 1 0 0 0 0
0 1 1 1 1 1 1 1 1 1 1 1 1 1 1 1 1 1 1 1 1 1 1 1 1 1 1 1 1 1 1 1 1 1 1 1 1 1 1 0 0 0 0
0 1 1 1 1 1 1 1 1 1 1 1 1 1 1 1 1 1 1 1 1 1 1 1 1 1 1 1 1 1 1 1 1 1 1 1 1 1 0 0 0 0 0
0 0 1 1 1 1 1 1 1 1 1 1 1 1 1 1 1 1 1 1 1 1 1 1 1 1 1 1 1 1 1 1 1 1 1 1 1 1 1 0 0 0 0
0 0 0 0 1 1 1 1 1 1 1 1 1 1 1 1 1 1 1 1 1 1 1 1 1 1 1 1 1 1 1 1 1 1 1 1 1 1 1 1 0 0 0
0 0 0 0 0 1 1 1 1 1 1 1 1 1 1 1 1 1 1 1 1 1 1 1 1 1 1 1 1 1 1 1 1 1 1 1 1 1 1 1 0 0 0
0 0 0 0 0 1 1 1 1 1 1 1 1 1 1 1 1 1 1 1 1 1 1 1 1 1 1 1 1 1 1 1 1 1 1 1 1 1 1 1 1 1 1
0 0 0 0 0 0 1 1 1 1 1 1 1 1 1 1 1 1 1 1 1 1 1 1 1 1 1 2 2 1 1 1 1 1 1 1 1 1 1 1 1 1 1
0 0 0 0 0 0 0 1 1 1 1 1 1 1 1 1 1 1 1 1 1 1 1 1 1 1 2 2 2 1 1 1 1 1 1 1 1 1 1 1 1 1 1
0 0 0 0 0 0 0 1 1 1 1 1 1 1 1 1 1 1 1 1 1 1 1 1 1 1 2 2 2 1 1 1 1 1 1 1 1 1 1 1 1 1 1
0 0 0 0 0 0 0 1 1 1 1 1 1 1 1 1 1 1 1 1 1 0 0 1 1 1 2 2 1 1 1 1 1 1 1 1 1 1 1 1 1 1 1
0 0 0 0 0 0 0 0 1 1 1 1 1 1 1 1 1 1 1 1 1 0 0 1 1 1 1 1 1 1 1 1 1 0 1 1 1 1 1 1 1 1 1
0 0 0 0 0 0 0 0 0 1 1 1 1 1 1 1 1 1 1 1 1 1 1 1 1 1 1 1 1 1 1 1 1 0 0 0 0 1 1 1 1 1 1
0 0 0 0 0 0 0 0 0 0 1 1 1 1 1 1 1 1 1 1 1 1 1 1 1 1 1 1 1 1 1 1 1 0 0 0 0 0 0 0 0 0 0
0 0 0 0 0 0 0 0 0 0 0 0 1 0 0 0 1 1 1 1 1 1 1 1 1 1 1 1 1 1 1 1 1 1 0 0 0 0 0 0 0 0 0
0 0 0 0 0 0 0 0 0 0 0 0 0 1 0 0 1 1 1 1 1 1 1 1 1 1 1 1 1 1 1 1 1 1 1 0 0 0 0 0 0 0 0
0 0 0 0 0 0 0 0 0 0 0 0 0 0 0 0 0 1 1 1 1 1 1 1 1 1 1 1 1 1 1 1 1 1 1 0 0 0 0 0 0 0 0
0 0 0 0 0 0 0 0 0 0 0 0 0 0 0 0 0 0 0 1 1 1 1 1 1 1 1 0 0 1 1 1 1 1 1 1 0 0 0 0 0 0 0
0 0 0 0 0 0 0 0 0 0 0 0 0 0 0 0 0 0 0 0 0 1 1 1 1 1 1 1 1 1 1 1 1 1 1 1 1 0 0 0 0 0 0
0 0 0 0 0 0 0 0 0 0 0 0 0 0 0 0 0 0 0 0 0 0 0 0 1 1 1 1 1 1 1 1 0 1 1 1 1 1 0 0 0 0 0
0 0 0 0 0 0 0 0 0 0 0 0 0 0 0 0 0 0 0 0 0 0 0 0 0 1 1 1 1 1 1 0 0 0 0 0 0 0 0 0 0 0 0
0 0 0 0 0 0 0 0 0 0 0 0 0 0 0 0 0 0 0 0 0 0 0 0 0 0 0 1 1 1 1 0 0 0 0 0 0 0 0 0 0 0 0
Wind_Speed
3 3 3 3 3 3 3 3 3 5 6 5 5 5 5 5 4 5 6 11 12 11 10 10 9 9 9 8 8 9 9 10 10 10 10 10 10 10 9 9 9 8 8
3 3 3 3 3 4 4 4 4 4 5 4 4 5 3 3 3 6 7 8 11 11 10 11 10 10 10 9 9 9 10 10 10 11 10 10 10 9 9 8 8 7 7
3 3 3 3 3 4 5 4 4 4 5 4 4 4 3 3 4 6 8 7 7 10 11 11 11 11 11 11 11 10 10 10 10 10 10 10 10 9 8 8 7 7 6
4 3 2 3 3 3 3 4 4 4 4 4 3 3 4 3 3 3 6 7 7 7 9 12 12 12 12 12 12 12 11 11 11 10 10 10 9 9 8 7 7 6 5
5 4 2 3 3 3 3 4 4 4 4 4 4 4 4 4 4 4 4 7 8 9 8 11 13 13 12 13 13 13 12 12 12 11 11 10 9 9 8 7 7 6 5
5 4 3 3 2 2 3 3 4 4 4 4 5 4 4 4 3 3 4 4 5 8 10 10 8 9 13 13 12 13 14 13 13 13 12 11 10 9 8 8 7 6 5
5 4 4 3 2 2 3 4 3 4 4 3 2 2 2 4 3 3 3 3 4 5 8 11 9 7 7 12 13 13 15 15 15 14 13 12 11 10 9 8 7 7 6
5 5 4 3 3 2 3 4 3 3 3 3 3 2 2 3 3 5 4 4 4 4 6 11 10 10 9 7 9 14 13 14 15 15 14 13 12 11 10 9 8 7 6
4 4 4 4 4 3 2 3 3 4 3 3 3 3 3 4 2 3 4 4 4 4 5 6 9 10 12 9 9 13 14 14 14 15 15 14 13 12 11 10 9 8 7
5 4 4 4 4 3 3 3 3 3 3 4 4 3 3 2 2 2 2 3 4 5 6 5 6 7 9 9 11 15 17 15 15 15 15 15 14 14 12 11 10 9 8
5 5 4 4 4 3 4 4 3 3 3 4 3 3 3 2 2 2 2 2 3 3 4 4 3 4 6 8 9 15 19 17 15 15 15 15 15 15 14 12 11 10 9
4 5 5 4 4 3 4 4 3 4 4 4 4 4 3 3 3 3 3 3 3 3 2 2 4 4 5 7 11 18 19 18 16 15 14 14 14 15 15 14 13 11 10
4 5 5 5 4 4 4 4 4 4 4 5 5 4 4 4 3 3 3 2 2 2 2 2 3 3 4 5 7 18 19 19 17 16 14 13 13 13 14 14 14 13 12
4 5 5 5 5 4 5 4 4 4 4 4 5 5 4 4 4 4 4 3 2 2 3 4 2 3 3 4 8 17 13 19 18 17 15 14 13 12 12 13 13 13 12
5 6 6 5 5 4 4 4 3 4 4 4 4 4 4 4 4 4 4 4 4 4 5 4 3 3 4 3 10 9 10 17 18 17 16 15 14 13 12 12 11 11 10
5 6 6 5 5 4 4 3 3 4 4 4 3 4 4 3 4 4 4 4 4 4 4 3 4 3 3 4 10 9 9 18 19 18 17 16 15 14 13 12 12 11 11
5 6 5 5 5 4 4 4 4 4 4 4 4 4 4 4 3 4 4 4 4 4 5 3 2 3 3 3 5 5 6 9 10 17 17 17 16 15 15 14 13 12 11
5 6 6 5 5 5 4 4 5 5 4 4 4 4 4 3 4 4 4 5 5 5 5 5 3 3 4 4 4 5 5 7 7 14 17 16 16 16 15 15 14 13 12
6 6 6 6 6 6 5 5 4 4 5 4 4 4 4 4 4 3 4 5 4 5 4 4 3 3 3 2 3 3 4 4 5 9 14 14 15 15 15 15 15 14 13
5 6 5 5 6 6 6 6 6 5 5 5 4 4 4 4 4 3 4 5 5 5 4 4 3 3 3 3 3 4 3 3 4 5 7 9 12 14 15 15 15 14 14
6 5 5 5 5 5 5 6 6 6 6 6 5 4 4 4 4 4 3 3 4 4 4 4 4 3 4 4 4 4 5 4 3 4 5 6 7 7 8 12 14 15 14
5 4 5 5 5 4 7 8 7 6 6 6 5 5 4 4 5 6 7 6 6 5 5 5 4 5 6 5 4 5 5 5 4 4 5 5 5 6 6 6 11 15 15
4 4 5 5 5 5 7 8 9 7 6 6 5 5 5 4 3 3 4 7 8 10 9 6 6 6 6 7 7 7 6 5 4 5 5 4 4 5 5 7 14 15 15
4 4 4 4 5 5 6 7 10 7 6 6 5 5 4 3 3 2 3 4 5 6 8 7 6 6 5 6 7 7 7 5 3 3 4 4 4 3 4 5 12 14 14
4 4 4 4 5 4 4 5 8 6 5 6 4 4 4 3 3 4 3 4 5 4 6 9 9 8 9 9 8 6 7 7 4 3 2 3 4 3 3 3 7 12 13
4 4 4 4 4 4 2 3 6 4 5 5 4 4 3 3 4 4 3 4 5 4 3 3 5 7 7 10 12 9 8 8 5 4 4 4 4 4 4 2 4 6 7
Wind_Direction
230 231 228 218 214 214 224 234 237 260 266 271 269 248 225 206 186 150 150 163 164 169 175 178 174 173 172 169 163 159 153 150 147 143 139 136 131 128 126 122 118 115 113
234 230 235 226 222 218 213 217 228 247 264 263 272 272 254 208 195 153 153 169 171 172 177 180 178 176 174 170 163 161 156 154 154 151 147 142 138 137 135 132 128 124 119
255 240 228 234 227 222 218 212 229 242 255 258 266 279 278 246 213 176 163 166 172 179 181 183 179 178 178 175 170 167 164 162 159 157 155 149 146 146 145 143 139 134 127
298 283 249 243 239 226 213 205 210 226 239 247 251 267 273 267 246 214 174 170 169 176 186 186 181 179 181 182 178 174 171 168 166 163 160 157 155 156 154 152 148 141 136
321 310 287 260 251 239 225 227 211 209 224 231 236 235 257 271 249 235 204 189 177 170 174 184 182 181 182 185 184 181 178 175 172 170 166 163 163 162 161 159 155 151 149
313 309 296 283 265 245 240 233 226 215 220 220 231 233 236 248 254 248 238 211 180 174 171 173 177 184 184 183 186 185 182 180 179 176 175 174 171 169 168 168 166 166 166
311 300 294 296 283 254 247 245 232 225 222 207 205 237 258 257 259 252 239 224 195 187 168 166 175 175 183 187 186 187 187 186 184 183 183 182 179 177 176 176 176 178 177
316 312 306 302 290 267 256 254 244 225 225 203 186 173 219 252 252 241 233 222 206 188 180 173 180 175 175 177 189 188 188 187 188 189 188 186 183 181 182 183 186 187 182
317 320 313 305 300 284 260 257 244 230 225 220 203 182 182 209 217 243 232 231 218 189 190 185 186 182 177 175 178 187 185 185 190 191 191 189 187 186 187 189 191 189 183
338 328 321 314 302 296 282 265 252 235 225 227 223 223 221 184 169 226 260 239 232 209 198 197 194 185 179 172 174 180 181 182 187 193 193 193 192 191 191 191 192 191 187
332 334 331 321 311 299 292 284 278 250 227 225 221 212 223 234 218 184 229 250 255 240 204 193 197 192 180 169 168 176 179 180 185 190 193 194 194 194 194 193 194 192 189
329 339 336 330 317 310 306 299 287 271 250 235 231 221 205 197 199 198 208 217 232 248 238 216 201 195 181 169 171 170 177 181 183 186 190 192 194 194 195 195 195 193 189
331 332 332 321 313 306 300 295 283 274 263 248 235 230 222 219 206 199 203 206 220 244 238 243 219 191 191 164 165 168 180 181 183 185 186 187 189 191 195 196 195 192 190
319 322 319 308 303 301 300 292 282 275 271 262 251 241 228 226 216 206 195 187 201 234 242 246 244 201 199 169 166 168 180 184 183 184 184 184 184 185 189 193 194 192 189
323 328 314 309 305 298 290 290 281 279 277 271 263 254 233 223 219 214 203 193 185 204 226 224 224 220 205 171 164 176 174 186 184 183 184 184 183 182 185 185 184 183 181
320 314 317 318 310 304 300 295 291 280 277 268 257 249 242 224 217 211 209 208 202 198 219 220 215 223 207 198 179 188 183 181 186 185 185 184 182 181 180 179 177 175 173
321 322 323 325 323 319 312 308 298 292 289 284 275 259 248 232 218 210 206 206 209 199 216 232 214 221 208 208 189 194 177 172 186 188 186 184 182 179 177 176 172 170 169
332 331 335 336 333 329 321 310 309 311 301 297 292 279 267 254 228 218 206 209 210 206 204 217 214 209 211 199 189 192 181 176 178 187 186 184 182 178 176 174 171 170 169
336 337 339 341 340 336 328 323 320 314 305 297 290 284 271 263 247 228 212 211 210 213 203 206 212 205 208 193 179 184 173 169 175 175 181 182 181 178 175 173 172 170 168
331 330 334 335 338 340 343 350 339 320 311 304 297 288 275 260 255 244 227 217 209 209 203 201 206 198 196 188 172 171 173 169 166 162 170 174 177 176 174 172 171 169 167
326 326 330 330 333 334 352 353 334 322 316 307 302 295 285 264 254 252 248 228 213 209 202 198 201 200 194 180 187 178 177 167 166 159 155 162 163 169 173 172 171 169 166
311 316 321 323 326 335 343 340 334 318 309 301 299 296 284 266 252 248 249 245 228 217 209 203 206 206 204 194 180 176 168 166 180 171 158 164 162 168 171 171 172 170 169
315 318 316 320 321 327 326 329 331 317 300 297 295 295 293 286 276 263 255 250 239 233 227 214 211 212 202 192 182 184 184 175 173 166 150 160 157 162 158 161 165 169 170
308 308 308 311 312 320 328 331 329 313 299 297 296 294 287 288 306 305 282 269 249 231 227 224 218 219 211 192 186 186 176 151 123 144 141 146 151 149 144 151 166 169 170
290 290 295 298 300 302 318 329 332 312 307 307 309 313 309 292 310 315 284 273 265 249 237 227 213 209 199 190 175 162 162 160 160 165 149 137 141 130 130 146 163 164 164
275 282 285 281 283 290 291 313 332 312 315 318 317 310 308 313 314 313 277 269 265 261 244 218 207 204 198 190 185 182 176 172 156 163 170 147 145 138 133 137 153 161 162